Content
SEND FEEDBACK

Daily
Averages
Monthly
Summary
United States of America

ROME, IOWA


Home > North America > United States > Iowa
Elevation: 702 feet     Latitude: 40 57N     Longitude: 091 33W

WEATHER
 
SELECT A DAY
Number of Records: 126,228;   Date Range: 5/15/02 - 7/26/14
 
SHARE

PRINT THIS DATA

[ ← Previous Day ]
WEATHER ALMANAC - FEBRUARY 13, 2013
[ Next Day → ]
[ °C ]   °F
Weather ElementAverageHighLow
Temperature40.3 °F52.3 °F (3:55 pm)29.8 °F (6:35 am)
Dewpoint26.9 °F30.2 °F (5:15 pm)23.4 °F (6:35 am)
Humidity60.9 %79 % (3:15 am)33 % (3:15 pm)
Barometer29.80 in29.90 in (12:35 am)29.71 in (11:55 pm)
Wind Speed7.4 mph12.7 mph (12:55 pm)
Wind Gust19.6 mph (1:35 pm)
Weather ElementAverage
Visibility9 mi
Wind DirectionSW (220.6 °)

Weather ElementTotal
Precipitation---
Heating Degree Days24 (Base 65)
Averaged from 70 records on February 13, 2013
WEATHER CONDITIONS BREAKOUT
WIND DIRECTION BREAKOUT
WEATHER BY HOUR - FEBRUARY 13, 2013
[ °C ]   °F
Local TimeTemperatureDewpointHumidityBarometerVisibilityWind DirectionWind SpeedGust SpeedPrecipitationEventsConditions
12:35 AM34.0 °F26.8 °F75 %29.90 in10.0 miSSW (210°)8.1 mphClear
12:55 AM34.2 °F27.0 °F75 %29.89 in10.0 miSSW (200°)8.1 mphClear
1:15 AM34.0 °F27.0 °F75 %29.88 in10.0 miSSW (210°)6.9 mphClear
1:35 AM33.1 °F26.6 °F77 %29.87 in10.0 miSSW (200°)6.9 mphClear
1:55 AM33.4 °F27.0 °F77 %29.87 in10.0 miSouth (190°)6.9 mphClear
2:15 AM33.4 °F26.6 °F76 %29.86 in7.0 miSouth (190°)6.9 mphClear
2:35 AM32.5 °F25.9 °F76 %29.86 in7.0 miSW (230°)5.8 mphClear
2:55 AM32.2 °F26.1 °F78 %29.85 in7.0 miSSW (210°)5.8 mphClear
3:15 AM32.0 °F26.1 °F79 %29.84 in7.0 miSSW (200°)6.9 mphClear
3:35 AM32.9 °F25.7 °F75 %29.84 in7.0 miSouth (190°)6.9 mphClear
3:55 AM32.4 °F25.7 °F76 %29.83 in7.0 miSSW (200°)5.8 mphClear
4:15 AM32.0 °F25.9 °F78 %29.83 in7.0 miSouth (190°)5.8 mphClear
4:35 AM31.5 °F24.8 °F76 %29.82 in7.0 miSW (220°)4.6 mphClear
4:55 AM30.9 °F24.8 °F78 %29.82 in7.0 miWSW (240°)4.6 mphClear
5:15 AM31.5 °F24.8 °F76 %29.82 in7.0 miSW (220°)3.5 mphClear
5:35 AM31.1 °F24.8 °F77 %29.81 in7.0 miSSW (200°)4.6 mphClear
5:55 AM31.5 °F24.8 °F76 %29.81 in7.0 miSW (220°)3.5 mphClear
6:15 AM30.2 °F23.9 °F77 %29.80 in7.0 miSW (230°)5.8 mphClear
6:35 AM29.8 °F23.4 °F77 %29.80 in7.0 miWSW (250°)5.8 mphClear
6:55 AM29.8 °F23.7 °F78 %29.81 in7.0 miWSW (240°)5.8 mphClear
7:15 AM30.4 °F23.9 °F77 %29.81 in5.0 miSW (230°)5.8 mphHaze
7:35 AM30.2 °F24.1 °F78 %29.81 in5.0 miSW (230°)4.6 mphHaze
7:55 AM32.0 °F25.3 °F76 %29.82 in5.0 miSW (230°)3.5 mphHaze
8:15 AM33.1 °F25.9 °F75 %29.82 in7.0 miWSW (240°)5.8 mphClear
8:35 AM34.7 °F26.2 °F71 %29.82 in7.0 miWSW (250°)5.8 mphClear
8:55 AM36.3 °F26.8 °F68 %29.82 in7.0 miWSW (250°)4.6 mphClear
9:15 AM37.6 °F27.3 °F66 %29.82 in10.0 miWSW (250°)5.8 mphClear
9:35 AM39.2 °F27.7 °F63 %29.82 in10.0 miWSW (250°)4.6 mphClear
9:55 AM40.3 °F27.9 °F61 %29.82 in10.0 miWSW (250°)5.8 mphClear
10:15 AM41.7 °F27.9 °F58 %29.82 in10.0 miWSW (240°)4.6 mphClear
10:35 AM42.6 °F27.5 °F55 %29.82 in10.0 miWSW (240°)8.1 mphClear
10:55 AM43.5 °F27.3 °F53 %29.82 in10.0 miWSW (240°)9.2 mphClear
11:15 AM45.0 °F27.1 °F50 %29.81 in10.0 miWSW (250°)9.2 mphClear
11:35 AM45.3 °F26.2 °F47 %29.81 in10.0 miWSW (240°)10.4 mphClear
11:55 AM46.4 °F25.3 °F44 %29.81 in10.0 miWSW (250°)10.4 mph17.3 mphClear
12:15 PM47.5 °F25.0 °F41 %29.80 in10.0 miWest (270°)10.4 mphClear
12:35 PM47.3 °F26.6 °F45 %29.79 in10.0 miWest (260°)9.2 mph17.3 mphClear
12:55 PM47.7 °F26.2 °F43 %29.79 in10.0 miWest (270°)12.7 mph17.3 mphClear
1:15 PM48.2 °F27.3 °F44 %29.78 in10.0 miWSW (240°)10.4 mph16.1 mphClear
1:35 PM49.6 °F26.2 °F40 %29.78 in10.0 miWSW (240°)11.5 mph19.6 mphClear
1:55 PM49.3 °F25.7 °F40 %29.78 in10.0 miWSW (250°)11.5 mphClear
2:15 PM50.9 °F25.3 °F37 %29.77 in10.0 miWest (260°)10.4 mphClear
2:35 PM51.1 °F25.5 °F37 %29.77 in10.0 miWSW (250°)10.4 mphClear
2:55 PM51.8 °F24.4 °F34 %29.77 in10.0 miWest (260°)8.1 mphClear
3:15 PM52.2 °F23.9 °F33 %29.77 in10.0 miWSW (250°)9.2 mphClear
3:55 PM52.3 °F23.5 °F33 %29.77 in10.0 miWSW (240°)5.8 mphClear
4:15 PM51.8 °F27.3 °F39 %29.77 in10.0 miSW (220°)9.2 mphClear
4:35 PM51.4 °F27.9 °F40 %29.77 in10.0 miSW (220°)6.9 mphClear
4:55 PM50.2 °F29.5 °F45 %29.77 in10.0 miSW (220°)8.1 mphClear
5:15 PM48.7 °F30.2 °F49 %29.77 in10.0 miSSW (210°)6.9 mphClear
5:35 PM46.6 °F30.0 °F53 %29.77 in10.0 miSSW (210°)6.9 mphClear
5:55 PM45.3 °F29.5 °F54 %29.77 in10.0 miSSW (210°)5.8 mphClear
6:15 PM44.4 °F29.3 °F55 %29.77 in10.0 miSSW (200°)5.8 mphClear
6:35 PM43.0 °F28.9 °F58 %29.77 in10.0 miSouth (190°)6.9 mphClear
6:55 PM41.9 °F28.8 °F60 %29.76 in10.0 miSouth (190°)6.9 mphClear
7:15 PM41.4 °F29.1 °F62 %29.77 in10.0 miSouth (190°)8.1 mphClear
7:35 PM41.0 °F29.1 °F63 %29.76 in10.0 miSouth (180°)8.1 mphClear
7:55 PM41.0 °F28.6 °F61 %29.76 in10.0 miSouth (180°)8.1 mphClear
8:15 PM41.2 °F28.9 °F62 %29.75 in10.0 miSouth (190°)8.1 mphClear
8:35 PM42.1 °F28.4 °F58 %29.75 in10.0 miSouth (190°)8.1 mphScattered Clouds
8:55 PM41.9 °F28.4 °F59 %29.75 in10.0 miSouth (190°)9.2 mphClear
9:15 PM41.7 °F28.9 °F61 %29.75 in10.0 miSouth (190°)9.2 mphMostly Cloudy
9:35 PM41.9 °F29.1 °F61 %29.74 in10.0 miSouth (190°)9.2 mphMostly Cloudy
9:55 PM42.1 °F29.3 °F61 %29.74 in10.0 miSouth (190°)8.1 mphScattered Clouds
10:15 PM42.4 °F29.1 °F59 %29.73 in10.0 miSSW (200°)9.2 mphScattered Clouds
10:35 PM42.1 °F29.7 °F61 %29.73 in10.0 miSSW (200°)9.2 mphScattered Clouds
10:55 PM42.1 °F29.8 °F62 %29.72 in10.0 miSSW (200°)8.1 mphClear
11:15 PM42.4 °F29.3 °F60 %29.72 in10.0 miSSW (210°)9.2 mphScattered Clouds
11:35 PM43.5 °F29.1 °F57 %29.72 in10.0 miSSW (200°)9.2 mphMostly Cloudy
11:55 PM43.3 °F29.7 °F59 %29.71 in10.0 miSSW (200°)9.2 mphOvercast
Hourly data recorded from KMPZ, located miles away from Rome, Iowa







STORIES FROM OUR PARTNERS